Time,TemperatureF,DewpointF,PressureIn,WindDirection,WindDirectionDegrees,WindSpeedMPH,WindSpeedGustMPH,Humidity,HourlyPrecipIn,Conditions,Clouds,dailyrainin,SoftwareType,DateUTC
2013-03-13 00:00:00,35.8,29.3,29.99,SSE,167,0.0,0.0,77,0.00,,---,0.00,VWS V14.00,2013-03-13 04:00:00,
2013-03-13 00:05:00,35.5,29.0,30.00,SSE,167,0.0,0.0,77,0.00,,---,0.00,VWS V14.00,2013-03-13 04:05:00,
2013-03-13 00:10:00,35.2,28.7,30.00,SSE,167,0.0,0.0,77,0.00,,---,0.00,VWS V14.00,2013-03-13 04:10:00,
2013-03-13 00:15:00,34.8,28.3,30.00,SSE,167,0.0,0.0,77,0.00,,---,0.00,VWS V14.00,2013-03-13 04:15:00,
2013-03-13 00:20:00,34.5,28.0,30.00,SSE,167,0.0,0.0,77,0.00,,---,0.00,VWS V14.00,2013-03-13 04:20:00,
2013-03-13 00:25:00,34.1,27.7,30.00,SSE,167,0.0,0.0,77,0.00,,---,0.00,VWS V14.00,2013-03-13 04:25:00,
2013-03-13 00:30:00,33.7,27.6,30.00,SSE,167,0.0,0.0,78,0.00,,---,0.00,VWS V14.00,2013-03-13 04:30:00,
2013-03-13 00:35:00,33.3,27.2,30.00,SSE,167,0.0,0.0,78,0.00,,---,0.00,VWS V14.00,2013-03-13 04:35:00,
2013-03-13 00:40:00,33.0,27.2,30.00,SSE,167,0.0,0.0,79,0.00,,---,0.00,VWS V14.00,2013-03-13 04:40:00,
2013-03-13 00:45:00,32.7,26.9,30.00,SSE,167,0.0,0.0,79,0.00,,---,0.00,VWS V14.00,2013-03-13 04:45:00,
2013-03-13 00:50:00,32.4,26.9,30.00,SSE,167,0.0,0.0,80,0.00,,---,0.00,VWS V14.00,2013-03-13 04:50:00,
2013-03-13 00:55:00,32.2,26.7,29.99,SSE,167,0.0,0.0,80,0.00,,---,0.00,VWS V14.00,2013-03-13 04:55:00,
2013-03-13 01:00:00,32.0,26.5,29.99,SSE,167,0.0,0.0,80,0.00,,---,0.00,VWS V14.00,2013-03-13 05:00:00,
2013-03-13 01:05:00,31.9,26.7,29.99,SSE,167,0.0,0.0,81,0.00,,---,0.00,VWS V14.00,2013-03-13 05:05:00,
2013-03-13 01:10:00,31.8,26.6,29.99,SSE,167,0.0,0.0,81,0.00,,---,0.00,VWS V14.00,2013-03-13 05:10:00,
2013-03-13 01:15:00,31.7,26.8,29.98,SSE,167,0.0,0.0,82,0.00,,---,0.00,VWS V14.00,2013-03-13 05:15:00,
2013-03-13 01:20:00,31.6,26.8,29.98,SSE,167,0.0,0.0,82,0.00,,---,0.00,VWS V14.00,2013-03-13 05:20:00,
2013-03-13 01:25:00,31.6,26.8,29.98,SSE,167,0.0,0.0,82,0.00,,---,0.00,VWS V14.00,2013-03-13 05:25:00,
2013-03-13 01:30:00,31.5,26.6,29.98,SSE,167,0.0,0.0,82,0.00,,---,0.00,VWS V14.00,2013-03-13 05:30:00,
2013-03-13 01:35:00,31.5,26.9,29.98,SSE,167,0.0,0.0,83,0.00,,---,0.00,VWS V14.00,2013-03-13 05:35:00,
2013-03-13 01:40:00,31.5,26.9,29.98,SSE,167,0.0,0.0,83,0.00,,---,0.00,VWS V14.00,2013-03-13 05:40:00,
2013-03-13 01:45:00,31.5,26.9,29.98,SSE,167,0.0,0.0,83,0.00,,---,0.00,VWS V14.00,2013-03-13 05:45:00,
2013-03-13 01:50:00,31.5,26.9,29.98,SSE,167,0.0,0.0,83,0.00,,---,0.00,VWS V14.00,2013-03-13 05:50:00,
2013-03-13 01:55:00,31.4,27.1,29.98,SSE,167,0.0,0.0,84,0.00,,---,0.00,VWS V14.00,2013-03-13 05:55:00,
2013-03-13 02:00:00,31.4,27.1,29.99,SSE,167,0.0,0.0,84,0.00,,---,0.00,VWS V14.00,2013-03-13 06:00:00,
2013-03-13 02:05:00,31.4,27.1,29.98,SSE,167,0.0,0.0,84,0.00,,---,0.00,VWS V14.00,2013-03-13 06:05:00,
2013-03-13 02:10:00,31.4,27.1,29.98,SSE,167,0.0,0.0,84,0.00,,---,0.00,VWS V14.00,2013-03-13 06:10:00,
2013-03-13 02:15:00,31.4,27.1,29.98,SSE,167,0.0,0.0,84,0.00,,---,0.00,VWS V14.00,2013-03-13 06:15:00,
2013-03-13 02:20:00,31.4,27.1,29.98,SSE,167,0.0,0.0,84,0.00,,---,0.00,VWS V14.00,2013-03-13 06:20:00,
2013-03-13 02:25:00,31.4,27.4,29.98,NW,309,3.0,3.0,85,0.00,,---,0.00,VWS V14.00,2013-03-13 06:25:00,
2013-03-13 02:30:00,31.6,27.9,29.98,South,180,0.0,3.0,86,0.00,,---,0.00,VWS V14.00,2013-03-13 06:30:00,
2013-03-13 02:35:00,32.0,28.6,29.98,SSW,203,1.0,1.0,87,0.00,,---,0.00,VWS V14.00,2013-03-13 06:35:00,
2013-03-13 02:40:00,32.2,28.8,29.98,SSE,160,1.0,2.0,87,0.00,,---,0.00,VWS V14.00,2013-03-13 06:40:00,
2013-03-13 02:45:00,32.4,29.0,29.98,SW,215,0.0,1.0,87,0.00,,---,0.00,VWS V14.00,2013-03-13 06:45:00,
2013-03-13 02:50:00,32.6,29.2,29.98,SSW,194,0.0,2.0,87,0.00,,---,0.00,VWS V14.00,2013-03-13 06:50:00,
2013-03-13 02:55:00,32.8,29.6,29.98,SW,214,0.0,5.0,88,0.00,,---,0.00,VWS V14.00,2013-03-13 06:55:00,
2013-03-13 03:00:00,33.0,29.8,29.98,SW,214,0.0,1.0,88,0.00,,---,0.00,VWS V14.00,2013-03-13 07:00:00,
2013-03-13 03:05:00,33.2,30.0,29.97,SSW,192,0.0,1.0,88,0.00,,---,0.00,VWS V14.00,2013-03-13 07:05:00,
2013-03-13 03:10:00,33.3,30.1,29.97,SSW,192,0.0,0.0,88,0.00,,---,0.00,VWS V14.00,2013-03-13 07:10:00,
2013-03-13 03:15:00,33.4,30.2,29.97,SSE,163,2.0,3.0,88,0.00,,---,0.00,VWS V14.00,2013-03-13 07:15:00,
2013-03-13 03:20:00,33.5,30.3,29.97,ESE,113,1.0,4.0,88,0.00,,---,0.00,VWS V14.00,2013-03-13 07:20:00,
2013-03-13 03:25:00,33.7,30.5,29.97,SE,133,0.0,2.0,88,0.00,,---,0.00,VWS V14.00,2013-03-13 07:25:00,
2013-03-13 03:30:00,33.7,30.5,29.96,South,170,0.0,1.0,88,0.00,,---,0.00,VWS V14.00,2013-03-13 07:30:00,
2013-03-13 03:35:00,33.8,30.6,29.96,SSW,193,2.0,2.0,88,0.00,,---,0.00,VWS V14.00,2013-03-13 07:35:00,
2013-03-13 03:40:00,33.8,30.6,29.96,SSW,198,0.0,1.0,88,0.00,,---,0.00,VWS V14.00,2013-03-13 07:40:00,
2013-03-13 03:45:00,33.9,30.7,29.96,South,185,0.0,1.0,88,0.00,,---,0.00,VWS V14.00,2013-03-13 07:45:00,
2013-03-13 03:50:00,33.8,30.6,29.96,South,190,0.0,0.0,88,0.00,,---,0.00,VWS V14.00,2013-03-13 07:50:00,
2013-03-13 03:55:00,33.8,30.6,29.96,South,190,0.0,0.0,88,0.00,,---,0.00,VWS V14.00,2013-03-13 07:55:00,
2013-03-13 04:00:00,33.8,30.6,29.95,South,190,0.0,2.0,88,0.00,,---,0.00,VWS V14.00,2013-03-13 08:00:00,
2013-03-13 04:08:00,33.8,30.6,29.95,West,263,0.0,4.0,88,0.00,,---,0.00,VWS V14.00,2013-03-13 08:08:00,
2013-03-13 04:13:00,33.8,30.6,29.95,NW,306,0.0,3.0,88,0.00,,---,0.00,VWS V14.00,2013-03-13 08:13:00,
2013-03-13 04:18:00,33.7,30.5,29.95,NW,306,0.0,0.0,88,0.00,,---,0.00,VWS V14.00,2013-03-13 08:18:00,
2013-03-13 04:23:00,33.6,30.4,29.95,NW,306,0.0,0.0,88,0.00,,---,0.00,VWS V14.00,2013-03-13 08:23:00,
2013-03-13 04:28:00,33.5,30.3,29.95,NW,322,0.0,3.0,88,0.00,,---,0.00,VWS V14.00,2013-03-13 08:28:00,
2013-03-13 04:33:00,33.4,30.2,29.94,NW,322,0.0,0.0,88,0.00,,---,0.00,VWS V14.00,2013-03-13 08:33:00,
2013-03-13 04:38:00,33.3,30.1,29.94,NW,322,0.0,0.0,88,0.00,,---,0.00,VWS V14.00,2013-03-13 08:38:00,
2013-03-13 04:43:00,33.2,30.0,29.94,NW,322,0.0,0.0,88,0.00,,---,0.00,VWS V14.00,2013-03-13 08:43:00,
2013-03-13 04:48:00,33.0,29.8,29.94,NW,322,0.0,0.0,88,0.00,,---,0.00,VWS V14.00,2013-03-13 08:48:00,
2013-03-13 04:53:00,32.8,29.6,29.94,NW,322,0.0,0.0,88,0.00,,---,0.00,VWS V14.00,2013-03-13 08:53:00,
2013-03-13 04:58:00,32.5,29.4,29.94,NW,322,0.0,0.0,88,0.00,,---,0.00,VWS V14.00,2013-03-13 08:58:00,
2013-03-13 05:03:00,32.3,28.9,29.94,NW,322,0.0,0.0,87,0.00,,---,0.00,VWS V14.00,2013-03-13 09:03:00,
2013-03-13 05:08:00,32.1,28.7,29.94,NW,322,0.0,0.0,87,0.00,,---,0.00,VWS V14.00,2013-03-13 09:08:00,
2013-03-13 05:13:00,31.8,28.4,29.95,WNW,284,0.0,3.0,87,0.00,,---,0.00,VWS V14.00,2013-03-13 09:13:00,
2013-03-13 05:18:00,31.6,28.2,29.95,NNW,333,1.0,2.0,87,0.00,,---,0.00,VWS V14.00,2013-03-13 09:18:00,
2013-03-13 05:23:00,31.5,28.4,29.94,SW,234,0.0,3.0,88,0.00,,---,0.00,VWS V14.00,2013-03-13 09:23:00,
2013-03-13 05:28:00,31.4,28.3,29.95,SW,234,0.0,0.0,88,0.00,,---,0.00,VWS V14.00,2013-03-13 09:28:00,
2013-03-13 05:33:00,31.4,28.3,29.94,SW,234,0.0,0.0,88,0.00,,---,0.00,VWS V14.00,2013-03-13 09:33:00,
2013-03-13 05:38:00,31.4,28.5,29.95,SSE,160,0.0,6.0,89,0.00,,---,0.00,VWS V14.00,2013-03-13 09:38:00,
2013-03-13 05:43:00,31.6,28.7,29.94,SSE,158,0.0,3.0,89,0.00,,---,0.00,VWS V14.00,2013-03-13 09:43:00,
2013-03-13 05:48:00,31.7,28.8,29.94,SSE,158,0.0,3.0,89,0.00,,---,0.00,VWS V14.00,2013-03-13 09:48:00,
2013-03-13 05:53:00,31.7,28.8,29.94,SSE,158,0.0,0.0,89,0.00,,---,0.00,VWS V14.00,2013-03-13 09:53:00,
2013-03-13 05:58:00,31.7,29.1,29.94,SSE,158,0.0,2.0,90,0.00,,---,0.00,VWS V14.00,2013-03-13 09:58:00,
2013-03-13 06:03:00,31.8,29.2,29.94,SSE,158,0.0,2.0,90,0.00,,---,0.00,VWS V14.00,2013-03-13 10:03:00,
2013-03-13 06:08:00,31.9,29.3,29.94,SSE,158,0.0,1.0,90,0.00,,---,0.00,VWS V14.00,2013-03-13 10:08:00,
2013-03-13 06:13:00,31.9,29.3,29.94,SSE,158,0.0,1.0,90,0.00,,---,0.00,VWS V14.00,2013-03-13 10:13:00,
2013-03-13 06:18:00,31.9,29.3,29.94,SSE,158,0.0,0.0,90,0.00,,---,0.00,VWS V14.00,2013-03-13 10:18:00,
2013-03-13 06:23:00,31.9,29.3,29.94,SSE,158,0.0,1.0,90,0.00,,---,0.00,VWS V14.00,2013-03-13 10:23:00,
2013-03-13 06:28:00,31.9,29.3,29.94,SSE,158,0.0,1.0,90,0.00,,---,0.00,VWS V14.00,2013-03-13 10:28:00,
2013-03-13 06:33:00,31.9,29.3,29.94,SSE,158,0.0,0.0,90,0.00,,---,0.00,VWS V14.00,2013-03-13 10:33:00,
2013-03-13 06:38:00,32.0,29.7,29.94,SSE,158,0.0,0.0,91,0.00,,---,0.00,VWS V14.00,2013-03-13 10:38:00,
2013-03-13 06:43:00,32.0,29.7,29.94,SSE,158,0.0,0.0,91,0.00,,---,0.00,VWS V14.00,2013-03-13 10:43:00,
2013-03-13 06:48:00,32.0,29.7,29.94,SSE,158,0.0,1.0,91,0.00,,---,0.00,VWS V14.00,2013-03-13 10:48:00,
2013-03-13 06:53:00,32.1,29.8,29.94,SSE,158,0.0,2.0,91,0.00,,---,0.00,VWS V14.00,2013-03-13 10:53:00,
2013-03-13 06:58:00,32.1,29.8,29.94,South,187,0.0,3.0,91,0.00,,---,0.00,VWS V14.00,2013-03-13 10:58:00,
2013-03-13 07:03:00,32.2,29.9,29.95,South,186,0.0,2.0,91,0.00,,---,0.00,VWS V14.00,2013-03-13 11:03:00,
2013-03-13 07:08:00,32.3,30.0,29.94,South,187,1.0,1.0,91,0.00,,---,0.00,VWS V14.00,2013-03-13 11:08:00,
2013-03-13 07:13:00,32.3,30.0,29.94,SSW,196,0.0,3.0,91,0.00,,---,0.00,VWS V14.00,2013-03-13 11:13:00,
2013-03-13 07:18:00,32.4,30.1,29.94,SSE,158,0.0,2.0,91,0.00,,---,0.00,VWS V14.00,2013-03-13 11:18:00,
2013-03-13 07:23:00,32.5,30.2,29.94,SW,215,1.0,7.0,91,0.00,,---,0.00,VWS V14.00,2013-03-13 11:23:00,
2013-03-13 07:28:00,32.5,30.2,29.94,West,263,1.0,3.0,91,0.00,,---,0.00,VWS V14.00,2013-03-13 11:28:00,
2013-03-13 07:33:00,32.6,30.3,29.94,SSE,164,0.0,3.0,91,0.00,,---,0.00,VWS V14.00,2013-03-13 11:33:00,
2013-03-13 07:38:00,32.6,30.3,29.94,WSW,240,0.0,5.0,91,0.00,,---,0.00,VWS V14.00,2013-03-13 11:38:00,
2013-03-13 07:43:00,32.7,30.4,29.94,SSE,163,2.0,3.0,91,0.00,,---,0.00,VWS V14.00,2013-03-13 11:43:00,
2013-03-13 07:48:00,32.7,30.4,29.94,SW,229,1.0,7.0,91,0.00,,---,0.00,VWS V14.00,2013-03-13 11:48:00,
2013-03-13 07:53:00,32.7,30.4,29.95,WSW,248,0.0,7.0,91,0.00,,---,0.00,VWS V14.00,2013-03-13 11:53:00,
2013-03-13 07:58:00,32.7,30.4,29.95,South,182,0.0,9.0,91,0.00,,---,0.00,VWS V14.00,2013-03-13 11:58:00,
2013-03-13 08:03:00,32.7,30.4,29.95,SSW,196,0.0,5.0,91,0.00,,---,0.00,VWS V14.00,2013-03-13 12:03:00,
2013-03-13 08:08:00,32.8,30.5,29.95,SSW,213,1.0,6.0,91,0.00,,---,0.00,VWS V14.00,2013-03-13 12:08:00,
2013-03-13 08:13:00,32.8,30.2,29.95,WSW,242,0.0,3.0,90,0.00,,---,0.00,VWS V14.00,2013-03-13 12:13:00,
2013-03-13 08:18:00,32.8,30.2,29.95,SW,216,0.0,4.0,90,0.00,,---,0.00,VWS V14.00,2013-03-13 12:18:00,
2013-03-13 08:23:00,32.8,30.2,29.95,NNW,335,1.0,6.0,90,0.00,,---,0.00,VWS V14.00,2013-03-13 12:23:00,
2013-03-13 08:28:00,32.8,30.2,29.96,West,263,1.0,4.0,90,0.00,,---,0.00,VWS V14.00,2013-03-13 12:28:00,
2013-03-13 08:33:00,32.8,30.2,29.96,West,260,2.0,4.0,90,0.00,,---,0.00,VWS V14.00,2013-03-13 12:33:00,
2013-03-13 08:38:00,32.8,29.9,29.96,SE,144,3.0,4.0,89,0.00,,---,0.00,VWS V14.00,2013-03-13 12:38:00,
2013-03-13 08:43:00,32.9,30.0,29.96,WNW,293,0.0,4.0,89,0.00,,---,0.00,VWS V14.00,2013-03-13 12:43:00,
2013-03-13 08:48:00,32.9,30.0,29.97,WNW,293,0.0,2.0,89,0.00,,---,0.00,VWS V14.00,2013-03-13 12:48:00,
2013-03-13 08:53:00,33.0,29.8,29.97,SW,234,1.0,7.0,88,0.00,,---,0.00,VWS V14.00,2013-03-13 12:53:00,
2013-03-13 08:58:00,33.1,29.9,29.97,WNW,302,0.0,3.0,88,0.00,,---,0.00,VWS V14.00,2013-03-13 12:58:00,
2013-03-13 09:03:00,33.1,29.9,29.97,WNW,288,4.0,5.0,88,0.00,,---,0.00,VWS V14.00,2013-03-13 13:03:00,
2013-03-13 09:08:00,33.2,29.8,29.97,NW,326,2.0,5.0,87,0.00,,---,0.00,VWS V14.00,2013-03-13 13:08:00,
2013-03-13 09:13:00,33.3,29.9,29.96,South,175,0.0,5.0,87,0.00,,---,0.00,VWS V14.00,2013-03-13 13:13:00,
2013-03-13 09:18:00,33.4,30.0,29.97,WSW,252,0.0,5.0,87,0.00,,---,0.00,VWS V14.00,2013-03-13 13:18:00,
2013-03-13 09:23:00,33.4,29.7,29.97,SSW,207,0.0,3.0,86,0.00,,---,0.00,VWS V14.00,2013-03-13 13:23:00,
2013-03-13 09:28:00,33.5,29.8,29.97,WNW,292,0.0,5.0,86,0.00,,---,0.00,VWS V14.00,2013-03-13 13:28:00,
2013-03-13 09:33:00,33.6,29.9,29.97,SSE,161,3.0,7.0,86,0.00,,---,0.00,VWS V14.00,2013-03-13 13:33:00,
2013-03-13 09:38:00,33.7,29.7,29.97,SSW,210,2.0,6.0,85,0.00,,---,0.00,VWS V14.00,2013-03-13 13:38:00,
2013-03-13 09:43:00,33.7,29.7,29.98,WSW,254,0.0,3.0,85,0.00,,---,0.00,VWS V14.00,2013-03-13 13:43:00,
2013-03-13 09:48:00,33.8,29.8,29.98,West,280,0.0,6.0,85,0.00,,---,0.00,VWS V14.00,2013-03-13 13:48:00,
2013-03-13 09:53:00,33.8,29.5,29.98,West,280,0.0,2.0,84,0.00,,---,0.00,VWS V14.00,2013-03-13 13:53:00,
2013-03-13 09:58:00,33.9,29.6,29.98,WSW,252,3.0,6.0,84,0.00,,---,0.00,VWS V14.00,2013-03-13 13:58:00,
2013-03-13 10:03:00,33.9,29.6,29.98,South,186,3.0,7.0,84,0.00,,---,0.00,VWS V14.00,2013-03-13 14:03:00,
2013-03-13 10:08:00,33.8,29.5,29.98,SW,214,0.0,5.0,84,0.00,,---,0.00,VWS V14.00,2013-03-13 14:08:00,
2013-03-13 10:13:00,33.7,29.4,29.98,SW,217,0.0,5.0,84,0.00,,---,0.00,VWS V14.00,2013-03-13 14:13:00,
2013-03-13 10:18:00,33.7,29.4,29.98,WNW,292,3.0,4.0,84,0.00,,---,0.00,VWS V14.00,2013-03-13 14:18:00,
2013-03-13 10:23:00,33.7,29.4,29.98,WSW,243,0.0,3.0,84,0.00,,---,0.00,VWS V14.00,2013-03-13 14:23:00,
2013-03-13 10:28:00,33.6,29.6,29.99,SSW,192,0.0,3.0,85,0.00,,---,0.00,VWS V14.00,2013-03-13 14:28:00,
2013-03-13 10:34:00,33.4,29.4,29.99,WSW,258,1.0,5.0,85,0.00,,---,0.00,VWS V14.00,2013-03-13 14:34:00,
2013-03-13 10:39:00,33.2,29.5,29.99,WNW,298,0.0,5.0,86,0.00,,---,0.01,VWS V14.00,2013-03-13 14:39:00,
2013-03-13 10:44:00,32.9,29.2,29.99,WSW,256,4.0,6.0,86,0.10,,---,0.02,VWS V14.00,2013-03-13 14:44:00,
2013-03-13 10:49:00,32.6,28.9,29.99,WSW,258,0.0,3.0,86,0.09,,---,0.03,VWS V14.00,2013-03-13 14:49:00,
2013-03-13 10:54:00,32.5,29.1,29.99,WNW,292,0.0,2.0,87,0.13,,---,0.04,VWS V14.00,2013-03-13 14:54:00,
2013-03-13 10:59:00,32.5,29.1,29.99,WNW,283,0.0,4.0,87,0.09,,---,0.04,VWS V14.00,2013-03-13 14:59:00,
2013-03-13 11:04:00,32.7,29.5,29.98,WNW,284,0.0,2.0,88,0.05,,---,0.04,VWS V14.00,2013-03-13 15:04:00,
2013-03-13 11:09:00,33.1,30.2,29.98,South,170,3.0,3.0,89,0.04,,---,0.04,VWS V14.00,2013-03-13 15:09:00,
2013-03-13 11:14:00,33.5,30.6,29.98,South,179,0.0,3.0,89,0.00,,---,0.04,VWS V14.00,2013-03-13 15:14:00,
2013-03-13 11:19:00,33.7,30.8,29.98,WSW,244,1.0,4.0,89,0.00,,---,0.04,VWS V14.00,2013-03-13 15:19:00,
2013-03-13 11:24:00,33.6,30.4,29.99,WNW,288,5.0,6.0,88,0.00,,---,0.04,VWS V14.00,2013-03-13 15:24:00,
2013-03-13 11:29:00,33.2,30.0,29.99,West,273,1.0,12.0,88,0.00,,---,0.04,VWS V14.00,2013-03-13 15:29:00,
2013-03-13 11:34:00,32.8,29.6,29.99,SW,227,0.0,7.0,88,0.00,,---,0.04,VWS V14.00,2013-03-13 15:34:00,
2013-03-13 11:39:00,32.4,29.2,29.99,West,269,0.0,5.0,88,0.00,,---,0.05,VWS V14.00,2013-03-13 15:39:00,
2013-03-13 11:44:00,32.1,29.2,29.99,SW,223,0.0,3.0,89,0.11,,---,0.06,VWS V14.00,2013-03-13 15:44:00,
2013-03-13 11:49:00,32.1,29.2,29.99,West,279,1.0,2.0,89,0.12,,---,0.07,VWS V14.00,2013-03-13 15:49:00,
2013-03-13 11:54:00,32.0,29.1,29.99,SW,232,0.0,5.0,89,0.11,,---,0.08,VWS V14.00,2013-03-13 15:54:00,
2013-03-13 11:59:00,32.2,29.6,29.99,NNW,338,3.0,3.0,90,0.10,,---,0.08,VWS V14.00,2013-03-13 15:59:00,
2013-03-13 12:04:00,32.3,29.7,29.99,West,264,0.0,3.0,90,0.06,,---,0.08,VWS V14.00,2013-03-13 16:04:00,
2013-03-13 12:09:00,32.4,29.8,29.99,WSW,251,1.0,4.0,90,0.04,,---,0.08,VWS V14.00,2013-03-13 16:09:00,
2013-03-13 12:14:00,32.6,30.0,29.99,West,270,2.0,3.0,90,0.00,,---,0.08,VWS V14.00,2013-03-13 16:14:00,
2013-03-13 12:19:00,32.7,30.1,29.99,West,260,0.0,3.0,90,0.00,,---,0.09,VWS V14.00,2013-03-13 16:19:00,
2013-03-13 12:24:00,32.9,30.3,29.99,North,355,0.0,5.0,90,0.00,,---,0.09,VWS V14.00,2013-03-13 16:24:00,
2013-03-13 12:29:00,33.0,30.4,30.00,WSW,238,9.0,12.0,90,0.00,,---,0.09,VWS V14.00,2013-03-13 16:29:00,
2013-03-13 12:34:00,32.6,30.0,29.99,NNW,335,6.0,10.0,90,0.00,,---,0.09,VWS V14.00,2013-03-13 16:34:00,
2013-03-13 12:39:00,32.3,29.7,30.00,WNW,290,2.0,9.0,90,0.00,,---,0.09,VWS V14.00,2013-03-13 16:39:00,
2013-03-13 12:44:00,32.3,29.7,29.99,West,281,1.0,4.0,90,0.00,,---,0.09,VWS V14.00,2013-03-13 16:44:00,
2013-03-13 12:49:00,32.9,30.6,30.00,WNW,298,2.0,7.0,91,0.00,,---,0.09,VWS V14.00,2013-03-13 16:49:00,
2013-03-13 12:54:00,33.7,31.4,29.99,WSW,255,3.0,10.0,91,0.00,,---,0.09,VWS V14.00,2013-03-13 16:54:00,
2013-03-13 12:59:00,34.6,32.2,30.00,WNW,296,0.0,6.0,91,0.00,,---,0.09,VWS V14.00,2013-03-13 16:59:00,
2013-03-13 13:04:00,35.5,32.6,29.99,SW,229,2.0,13.0,89,0.00,,---,0.09,VWS V14.00,2013-03-13 17:04:00,
2013-03-13 13:09:00,35.5,32.0,30.00,South,186,2.0,12.0,87,0.00,,---,0.09,VWS V14.00,2013-03-13 17:09:00,
2013-03-13 13:14:00,35.4,31.4,30.00,SW,232,5.0,9.0,85,0.00,,---,0.09,VWS V14.00,2013-03-13 17:14:00,
2013-03-13 13:19:00,35.5,30.6,29.99,South,191,2.0,12.0,82,0.00,,---,0.09,VWS V14.00,2013-03-13 17:19:00,
2013-03-13 13:24:00,35.4,29.9,29.99,SSW,195,3.0,11.0,80,0.00,,---,0.09,VWS V14.00,2013-03-13 17:24:00,
2013-03-13 13:29:00,35.5,29.3,29.99,SW,223,4.0,9.0,78,0.00,,---,0.09,VWS V14.00,2013-03-13 17:29:00,
2013-03-13 13:34:00,35.7,29.2,30.00,West,263,5.0,14.0,77,0.00,,---,0.09,VWS V14.00,2013-03-13 17:34:00,
2013-03-13 13:39:00,35.9,29.1,30.00,WNW,291,3.0,13.0,76,0.00,,---,0.09,VWS V14.00,2013-03-13 17:39:00,
2013-03-13 13:44:00,35.9,28.4,30.00,SW,216,5.0,17.0,74,0.00,,---,0.09,VWS V14.00,2013-03-13 17:44:00,
2013-03-13 13:49:00,36.2,28.1,30.00,SSW,195,2.0,7.0,72,0.00,,---,0.09,VWS V14.00,2013-03-13 17:49:00,
2013-03-13 13:54:00,36.5,28.0,30.00,West,267,4.0,11.0,71,0.00,,---,0.09,VWS V14.00,2013-03-13 17:54:00,
2013-03-13 13:59:00,36.6,28.1,30.00,WSW,239,0.0,14.0,71,0.00,,---,0.09,VWS V14.00,2013-03-13 17:59:00,
2013-03-13 14:04:00,36.4,27.6,30.00,West,275,2.0,14.0,70,0.00,,---,0.09,VWS V14.00,2013-03-13 18:04:00,
2013-03-13 14:09:00,36.1,26.6,30.00,NW,304,0.0,9.0,68,0.00,,---,0.09,VWS V14.00,2013-03-13 18:09:00,
2013-03-13 14:14:00,36.0,26.5,30.00,SSW,201,5.0,14.0,68,0.00,,---,0.09,VWS V14.00,2013-03-13 18:14:00,
2013-03-13 14:19:00,35.6,25.4,30.00,SSW,193,3.0,13.0,66,0.00,,---,0.09,VWS V14.00,2013-03-13 18:19:00,
2013-03-13 14:24:00,35.9,26.7,30.00,NW,325,2.0,10.0,69,0.00,,---,0.09,VWS V14.00,2013-03-13 18:24:00,
2013-03-13 14:29:00,36.4,26.9,30.00,WNW,293,10.0,13.0,68,0.00,,---,0.09,VWS V14.00,2013-03-13 18:29:00,
2013-03-13 14:34:00,36.8,26.1,30.00,WNW,296,0.0,12.0,65,0.00,,---,0.09,VWS V14.00,2013-03-13 18:34:00,
2013-03-13 14:39:00,37.4,27.5,30.00,WSW,257,1.0,17.0,67,0.00,,---,0.09,VWS V14.00,2013-03-13 18:39:00,
2013-03-13 14:44:00,37.9,28.3,30.00,West,265,10.0,15.0,68,0.00,,---,0.09,VWS V14.00,2013-03-13 18:44:00,
2013-03-13 14:49:00,38.2,27.9,30.00,South,169,0.0,12.0,66,0.00,,---,0.09,VWS V14.00,2013-03-13 18:49:00,
2013-03-13 14:54:00,38.7,28.3,30.00,South,173,5.0,13.0,66,0.00,,---,0.09,VWS V14.00,2013-03-13 18:54:00,
2013-03-13 14:59:00,38.8,27.7,30.00,SW,236,1.0,12.0,64,0.00,,---,0.09,VWS V14.00,2013-03-13 18:59:00,
2013-03-13 15:04:00,38.7,26.8,30.00,SSW,196,2.0,11.0,62,0.00,,---,0.09,VWS V14.00,2013-03-13 19:04:00,
2013-03-13 15:09:00,37.9,25.7,30.01,WNW,298,10.0,15.0,61,0.00,,---,0.09,VWS V14.00,2013-03-13 19:09:00,
2013-03-13 15:14:00,37.1,27.2,30.01,North,351,5.0,16.0,67,0.00,,---,0.09,VWS V14.00,2013-03-13 19:14:00,
2013-03-13 15:19:00,36.2,27.4,30.02,WNW,301,4.0,15.0,70,0.00,,---,0.09,VWS V14.00,2013-03-13 19:19:00,
2013-03-13 15:24:00,35.8,28.0,30.02,WSW,238,10.0,10.0,73,0.00,,---,0.09,VWS V14.00,2013-03-13 19:24:00,
2013-03-13 15:29:00,35.3,27.9,30.02,WNW,286,2.0,10.0,74,0.00,,---,0.09,VWS V14.00,2013-03-13 19:29:00,
2013-03-13 15:34:00,35.2,27.8,30.02,NW,311,4.0,14.0,74,0.00,,---,0.09,VWS V14.00,2013-03-13 19:34:00,
2013-03-13 15:39:00,35.4,28.0,30.02,South,176,0.0,6.0,74,0.00,,---,0.09,VWS V14.00,2013-03-13 19:39:00,
2013-03-13 15:44:00,35.9,28.4,30.02,WNW,288,7.0,11.0,74,0.00,,---,0.09,VWS V14.00,2013-03-13 19:44:00,
2013-03-13 15:49:00,36.1,27.6,30.02,WSW,252,4.0,11.0,71,0.00,,---,0.09,VWS V14.00,2013-03-13 19:49:00,
2013-03-13 15:54:00,35.9,26.4,30.02,SW,223,2.0,16.0,68,0.00,,---,0.09,VWS V14.00,2013-03-13 19:54:00,
2013-03-13 15:59:00,35.4,25.2,30.02,West,267,0.0,10.0,66,0.00,,---,0.09,VWS V14.00,2013-03-13 19:59:00,
2013-03-13 16:04:00,35.2,25.0,30.02,SW,217,2.0,7.0,66,0.00,,---,0.09,VWS V14.00,2013-03-13 20:04:00,
2013-03-13 16:09:00,35.0,24.4,30.03,NW,325,0.0,11.0,65,0.00,,---,0.09,VWS V14.00,2013-03-13 20:09:00,
2013-03-13 16:14:00,34.6,24.1,30.03,SW,215,7.0,10.0,65,0.00,,---,0.09,VWS V14.00,2013-03-13 20:14:00,
2013-03-13 16:19:00,34.3,24.5,30.03,WNW,292,4.0,13.0,67,0.00,,---,0.09,VWS V14.00,2013-03-13 20:19:00,
2013-03-13 16:24:00,33.8,25.4,30.04,NNW,328,2.0,18.0,71,0.00,,---,0.09,VWS V14.00,2013-03-13 20:24:00,
2013-03-13 16:29:00,33.3,25.9,30.04,SW,217,10.0,13.0,74,0.00,,---,0.09,VWS V14.00,2013-03-13 20:29:00,
2013-03-13 16:34:00,32.6,26.2,30.05,West,281,0.0,12.0,77,0.00,,---,0.09,VWS V14.00,2013-03-13 20:34:00,
2013-03-13 16:39:00,32.1,26.3,30.05,WNW,301,6.0,10.0,79,0.00,,---,0.09,VWS V14.00,2013-03-13 20:39:00,
2013-03-13 16:44:00,31.9,26.7,30.05,NW,306,5.0,10.0,81,0.00,,---,0.09,VWS V14.00,2013-03-13 20:44:00,
2013-03-13 16:49:00,31.7,26.5,30.05,WNW,297,0.0,15.0,81,0.00,,---,0.09,VWS V14.00,2013-03-13 20:49:00,
2013-03-13 16:54:00,31.5,26.4,30.05,South,189,4.0,12.0,81,0.00,,---,0.09,VWS V14.00,2013-03-13 20:54:00,
2013-03-13 16:59:00,31.4,26.2,30.05,SW,221,6.0,9.0,81,0.00,,---,0.09,VWS V14.00,2013-03-13 20:59:00,
2013-03-13 17:04:00,31.5,26.0,30.05,SW,221,1.0,10.0,80,0.00,,---,0.09,VWS V14.00,2013-03-13 21:04:00,
2013-03-13 17:09:00,31.8,25.7,30.05,WSW,238,1.0,11.0,78,0.00,,---,0.09,VWS V14.00,2013-03-13 21:09:00,
2013-03-13 17:14:00,32.2,25.8,30.05,SSE,159,0.0,12.0,77,0.00,,---,0.09,VWS V14.00,2013-03-13 21:14:00,
2013-03-13 17:19:00,32.5,25.5,30.05,SW,219,3.0,7.0,75,0.00,,---,0.09,VWS V14.00,2013-03-13 21:19:00,
2013-03-13 17:24:00,32.7,25.3,30.05,SW,229,0.0,10.0,74,0.00,,---,0.09,VWS V14.00,2013-03-13 21:24:00,
2013-03-13 17:29:00,32.7,25.0,30.06,West,273,10.0,11.0,73,0.00,,---,0.09,VWS V14.00,2013-03-13 21:29:00,
2013-03-13 17:34:00,32.8,25.1,30.06,SSW,201,0.0,0.0,73,0.00,,---,0.09,VWS V14.00,2013-03-13 21:34:00,
2013-03-13 17:39:00,32.8,25.1,30.06,WSW,256,2.0,2.0,73,0.00,,---,0.09,VWS V14.00,2013-03-13 21:39:00,
2013-03-13 17:44:00,32.8,25.1,30.07,WNW,297,3.0,4.0,73,0.00,,---,0.09,VWS V14.00,2013-03-13 21:44:00,
2013-03-13 17:49:00,32.5,25.5,30.07,South,175,1.0,3.0,75,0.00,,---,0.09,VWS V14.00,2013-03-13 21:49:00,
2013-03-13 17:54:00,31.9,25.2,30.07,North,355,1.0,9.0,76,0.00,,---,0.09,VWS V14.00,2013-03-13 21:54:00,
2013-03-13 17:59:00,31.4,25.0,30.07,SSW,208,4.0,5.0,77,0.00,,---,0.09,VWS V14.00,2013-03-13 21:59:00,
2013-03-13 18:04:00,31.0,24.6,30.08,West,273,2.0,2.0,77,0.00,,---,0.09,VWS V14.00,2013-03-13 22:04:00,
2013-03-13 18:09:00,30.6,24.3,30.08,WSW,246,2.0,3.0,77,0.00,,---,0.09,VWS V14.00,2013-03-13 22:09:00,
2013-03-13 18:14:00,30.5,24.5,30.08,WSW,239,0.0,1.0,78,0.00,,---,0.09,VWS V14.00,2013-03-13 22:14:00,
2013-03-13 18:19:00,30.5,24.8,30.08,SW,232,2.0,3.0,79,0.00,,---,0.09,VWS V14.00,2013-03-13 22:19:00,
2013-03-13 18:24:00,30.5,24.8,30.08,West,279,1.0,6.0,79,0.00,,---,0.09,VWS V14.00,2013-03-13 22:24:00,
2013-03-13 18:29:00,30.4,24.7,30.08,WSW,243,3.0,5.0,79,0.00,,---,0.09,VWS V14.00,2013-03-13 22:29:00,
2013-03-13 18:34:00,30.4,24.7,30.09,NW,321,3.0,3.0,79,0.00,,---,0.09,VWS V14.00,2013-03-13 22:34:00,
2013-03-13 18:39:00,30.3,24.6,30.09,West,264,2.0,3.0,79,0.00,,---,0.09,VWS V14.00,2013-03-13 22:39:00,
2013-03-13 18:44:00,30.1,24.1,30.09,West,264,3.0,5.0,78,0.00,,---,0.09,VWS V14.00,2013-03-13 22:44:00,
2013-03-13 18:49:00,29.9,23.9,30.09,WSW,244,3.0,5.0,78,0.00,,---,0.09,VWS V14.00,2013-03-13 22:49:00,
2013-03-13 18:54:00,29.9,23.6,30.10,WSW,247,0.0,0.0,77,0.00,,---,0.09,VWS V14.00,2013-03-13 22:54:00,
2013-03-13 18:59:00,29.9,23.6,30.09,SSW,202,0.0,0.0,77,0.00,,---,0.09,VWS V14.00,2013-03-13 22:59:00,
2013-03-13 19:04:00,29.8,23.5,30.10,West,271,0.0,1.0,77,0.00,,---,0.09,VWS V14.00,2013-03-13 23:04:00,
2013-03-13 19:09:00,29.8,23.2,30.10,West,277,3.0,3.0,76,0.00,,---,0.09,VWS V14.00,2013-03-13 23:09:00,
2013-03-13 19:14:00,29.8,23.2,30.10,SW,214,2.0,4.0,76,0.00,,---,0.09,VWS V14.00,2013-03-13 23:14:00,
2013-03-13 19:19:00,29.8,22.9,30.10,WSW,254,3.0,4.0,75,0.00,,---,0.09,VWS V14.00,2013-03-13 23:19:00,
2013-03-13 19:24:00,29.8,22.9,30.10,West,265,1.0,4.0,75,0.00,,---,0.09,VWS V14.00,2013-03-13 23:24:00,
2013-03-13 19:29:00,29.8,22.9,30.10,SW,231,2.0,2.0,75,0.00,,---,0.09,VWS V14.00,2013-03-13 23:29:00,
2013-03-13 19:34:00,29.8,22.9,30.11,SW,225,1.0,2.0,75,0.00,,---,0.09,VWS V14.00,2013-03-13 23:34:00,
2013-03-13 19:39:00,29.7,22.8,30.11,WNW,297,9.0,12.0,75,0.00,,---,0.09,VWS V14.00,2013-03-13 23:39:00,
2013-03-13 19:44:00,29.7,22.4,30.11,West,273,3.0,5.0,74,0.00,,---,0.09,VWS V14.00,2013-03-13 23:44:00,
2013-03-13 19:49:00,29.6,22.4,30.12,West,277,1.0,5.0,74,0.00,,---,0.09,VWS V14.00,2013-03-13 23:49:00,
2013-03-13 19:54:00,29.6,22.4,30.11,WSW,254,7.0,7.0,74,0.00,,---,0.09,VWS V14.00,2013-03-13 23:54:00,
2013-03-13 19:59:00,29.6,22.4,30.12,WSW,242,0.0,1.0,74,0.00,,---,0.09,VWS V14.00,2013-03-13 23:59:00,
2013-03-13 20:04:00,29.6,22.0,30.12,WNW,296,3.0,4.0,73,0.00,,---,0.09,VWS V14.00,2013-03-14 00:04:00,
2013-03-13 20:09:00,29.6,22.4,30.12,SW,225,4.0,4.0,74,0.00,,---,0.09,VWS V14.00,2013-03-14 00:09:00,
2013-03-13 20:14:00,29.6,22.4,30.12,WSW,254,0.0,2.0,74,0.00,,---,0.09,VWS V14.00,2013-03-14 00:14:00,
2013-03-13 20:19:00,29.5,22.6,30.13,SW,232,0.0,2.0,75,0.00,,---,0.09,VWS V14.00,2013-03-14 00:19:00,
2013-03-13 20:24:00,29.4,22.5,30.12,SSW,210,6.0,6.0,75,0.00,,---,0.09,VWS V14.00,2013-03-14 00:24:00,
2013-03-13 20:29:00,29.4,22.5,30.13,WSW,246,0.0,2.0,75,0.00,,---,0.09,VWS V14.00,2013-03-14 00:29:00,
2013-03-13 20:34:00,29.3,22.4,30.13,West,279,0.0,1.0,75,0.00,,---,0.09,VWS V14.00,2013-03-14 00:34:00,
2013-03-13 20:39:00,29.3,22.4,30.13,West,268,2.0,2.0,75,0.00,,---,0.09,VWS V14.00,2013-03-14 00:39:00,
2013-03-13 20:44:00,29.3,22.4,30.13,West,278,3.0,9.0,75,0.00,,---,0.09,VWS V14.00,2013-03-14 00:44:00,
2013-03-13 20:49:00,29.2,22.6,30.13,SW,217,0.0,0.0,76,0.00,,---,0.09,VWS V14.00,2013-03-14 00:49:00,
2013-03-13 20:54:00,29.2,22.6,30.13,WSW,255,0.0,3.0,76,0.00,,---,0.09,VWS V14.00,2013-03-14 00:54:00,
2013-03-13 20:59:00,29.2,22.6,30.13,WSW,246,0.0,2.0,76,0.00,,---,0.09,VWS V14.00,2013-03-14 00:59:00,
2013-03-13 21:04:00,29.1,22.5,30.13,SSW,200,3.0,4.0,76,0.00,,---,0.09,VWS V14.00,2013-03-14 01:04:00,
2013-03-13 21:09:00,29.0,22.4,30.13,West,269,0.0,2.0,76,0.00,,---,0.09,VWS V14.00,2013-03-14 01:09:00,
2013-03-13 21:14:00,29.0,22.4,30.13,WSW,251,5.0,5.0,76,0.00,,---,0.09,VWS V14.00,2013-03-14 01:14:00,
2013-03-13 21:19:00,29.0,22.4,30.13,SSW,207,1.0,12.0,76,0.00,,---,0.09,VWS V14.00,2013-03-14 01:19:00,
2013-03-13 21:24:00,29.0,22.4,30.14,West,277,0.0,0.0,76,0.00,,---,0.09,VWS V14.00,2013-03-14 01:24:00,
2013-03-13 21:29:00,29.0,22.4,30.14,South,182,2.0,5.0,76,0.00,,---,0.09,VWS V14.00,2013-03-14 01:29:00,
2013-03-13 21:34:00,29.0,22.4,30.14,South,188,1.0,5.0,76,0.00,,---,0.09,VWS V14.00,2013-03-14 01:34:00,
2013-03-13 21:39:00,28.9,22.3,30.14,SW,223,0.0,3.0,76,0.00,,---,0.09,VWS V14.00,2013-03-14 01:39:00,
2013-03-13 21:44:00,28.9,22.3,30.14,West,273,0.0,0.0,76,0.00,,---,0.09,VWS V14.00,2013-03-14 01:44:00,
2013-03-13 21:49:00,28.8,22.2,30.14,South,178,3.0,5.0,76,0.00,,---,0.09,VWS V14.00,2013-03-14 01:49:00,
2013-03-13 21:54:00,28.8,22.2,30.15,NW,304,0.0,2.0,76,0.00,,---,0.09,VWS V14.00,2013-03-14 01:54:00,
2013-03-13 21:59:00,28.7,22.1,30.14,WNW,289,0.0,3.0,76,0.00,,---,0.09,VWS V14.00,2013-03-14 01:59:00,
2013-03-13 22:04:00,28.7,22.1,30.14,SW,231,3.0,4.0,76,0.00,,---,0.09,VWS V14.00,2013-03-14 02:04:00,
2013-03-13 22:09:00,28.7,22.1,30.14,West,279,4.0,4.0,76,0.00,,---,0.09,VWS V14.00,2013-03-14 02:09:00,
2013-03-13 22:14:00,28.7,22.1,30.15,WSW,242,0.0,5.0,76,0.00,,---,0.09,VWS V14.00,2013-03-14 02:14:00,
2013-03-13 22:19:00,28.7,22.1,30.15,WSW,257,0.0,0.0,76,0.00,,---,0.09,VWS V14.00,2013-03-14 02:19:00,
2013-03-13 22:24:00,28.7,22.1,30.15,West,275,2.0,3.0,76,0.00,,---,0.09,VWS V14.00,2013-03-14 02:24:00,
2013-03-13 22:29:00,28.7,22.4,30.15,WSW,248,4.0,7.0,77,0.00,,---,0.09,VWS V14.00,2013-03-14 02:29:00,
2013-03-13 22:34:00,28.6,22.6,30.15,West,277,2.0,4.0,78,0.00,,---,0.09,VWS V14.00,2013-03-14 02:34:00,
2013-03-13 22:39:00,28.5,22.8,30.15,SSW,205,2.0,4.0,79,0.00,,---,0.09,VWS V14.00,2013-03-14 02:39:00,
2013-03-13 22:44:00,28.5,23.1,30.15,WNW,301,0.0,0.0,80,0.00,,---,0.09,VWS V14.00,2013-03-14 02:44:00,
2013-03-13 22:49:00,28.4,23.0,30.15,SW,227,0.0,0.0,80,0.00,,---,0.09,VWS V14.00,2013-03-14 02:49:00,
2013-03-13 22:54:00,28.3,22.9,30.15,WSW,238,0.0,1.0,80,0.00,,---,0.09,VWS V14.00,2013-03-14 02:54:00,
2013-03-13 22:59:00,28.2,22.8,30.16,WNW,288,1.0,3.0,80,0.00,,---,0.09,VWS V14.00,2013-03-14 02:59:00,
2013-03-13 23:04:00,28.2,22.8,30.16,WNW,292,1.0,5.0,80,0.00,,---,0.09,VWS V14.00,2013-03-14 03:04:00,
2013-03-13 23:09:00,28.2,22.8,30.16,WNW,292,2.0,2.0,80,0.00,,---,0.09,VWS V14.00,2013-03-14 03:09:00,
2013-03-13 23:14:00,28.1,22.7,30.16,WNW,287,2.0,3.0,80,0.00,,---,0.09,VWS V14.00,2013-03-14 03:14:00,
2013-03-13 23:19:00,28.1,22.7,30.16,SW,226,1.0,3.0,80,0.00,,---,0.09,VWS V14.00,2013-03-14 03:19:00,
2013-03-13 23:24:00,28.1,22.7,30.16,WNW,288,0.0,0.0,80,0.00,,---,0.09,VWS V14.00,2013-03-14 03:24:00,
2013-03-13 23:29:00,28.0,22.3,30.16,SW,233,0.0,2.0,79,0.00,,---,0.09,VWS V14.00,2013-03-14 03:29:00,
2013-03-13 23:34:00,28.0,22.3,30.16,WSW,246,4.0,11.0,79,0.00,,---,0.09,VWS V14.00,2013-03-14 03:34:00,
2013-03-13 23:39:00,28.0,22.3,30.16,SE,127,2.0,3.0,79,0.00,,---,0.09,VWS V14.00,2013-03-14 03:39:00,
2013-03-13 23:44:00,28.1,22.4,30.16,WNW,291,1.0,2.0,79,0.00,,---,0.09,VWS V14.00,2013-03-14 03:44:00,
2013-03-13 23:49:00,28.1,22.4,30.17,West,278,0.0,2.0,79,0.00,,---,0.09,VWS V14.00,2013-03-14 03:49:00,
2013-03-13 23:54:00,28.1,22.1,30.17,WNW,284,1.0,5.0,78,0.00,,---,0.09,VWS V14.00,2013-03-14 03:54:00,
2013-03-13 23:59:00,28.1,22.1,30.17,SSW,194,0.0,0.0,78,0.00,,---,0.00,VWS V14.00,2013-03-14 03:59:00,